DAL2804 MMSD-KDEN

Flight info

Callsign DAL2804
Flight time N/A
Altitude 41000
Route UKUXA1A UKUXA DCT LERIV UT9 BECON/N0482F400 DCT LAYEN/N0478F410 DCT ABQ/N0478F400 DCT GNDLA TBARR4
Aircraft A359/H-SDE2E3GHIJ3J4J5LM1ORWXY/LB1D1

Departure

Time 2026-04-29 02:51
Airport Los Cabos International Airport (MMSD)

Arrival

Time N/A
Airport Denver International Airport (KDEN)
Time Latitude Longitude Altitude Speed Heading
2026-04-29 02:18 23.15593 -109.71788 377 ft 0 kts 82°
2026-04-29 02:40 23.15592 -109.71802 377 ft 4 kts 63°
2026-04-29 02:41 23.15583 -109.71815 174 ft 4 kts 39°
2026-04-29 02:41 23.15565 -109.71826 377 ft 4 kts
2026-04-29 02:41 23.15539 -109.71823 377 ft 4 kts 353°
2026-04-29 02:41 23.15529 -109.71822 377 ft 1 kts 354°
2026-04-29 02:46 23.15544 -109.71824 377 ft 3 kts 354°
2026-04-29 02:46 23.15574 -109.71830 341 ft 6 kts 341°
2026-04-29 02:46 23.15595 -109.71864 377 ft 6 kts 285°
2026-04-29 02:46 23.15620 -109.71902 377 ft 7 kts 332°
2026-04-29 02:47 23.15675 -109.71922 377 ft 10 kts 351°
2026-04-29 02:47 23.15750 -109.71932 377 ft 12 kts 353°
2026-04-29 02:47 23.15842 -109.71944 377 ft 14 kts 353°
2026-04-29 02:47 23.15949 -109.71958 377 ft 17 kts 353°
2026-04-29 02:48 23.16071 -109.71973 377 ft 19 kts 355°
2026-04-29 02:48 23.16208 -109.71987 377 ft 21 kts 355°
2026-04-29 02:48 23.16352 -109.72001 377 ft 21 kts 355°
2026-04-29 02:48 23.16483 -109.72014 377 ft 14 kts 354°
2026-04-29 02:49 23.16577 -109.72026 377 ft 11 kts 348°
2026-04-29 02:49 23.16605 -109.72079 377 ft 8 kts 271°
2026-04-29 02:49 23.16604 -109.72113 377 ft 0 kts 268°
2026-04-29 02:50 23.16603 -109.72124 377 ft 7 kts 266°
2026-04-29 02:50 23.16575 -109.72187 378 ft 10 kts 224°
2026-04-29 02:50 23.16506 -109.72221 378 ft 12 kts 186°
2026-04-29 02:50 23.16368 -109.72205 378 ft 37 kts 174°
2026-04-29 02:51 23.15863 -109.72146 377 ft 107 kts 174°
2026-04-29 02:51 23.14913 -109.72041 380 ft 166 kts 174°
2026-04-29 02:51 23.13742 -109.71917 1002 ft 169 kts 173°
2026-04-29 02:51 23.12590 -109.71905 1813 ft 169 kts 191°
2026-04-29 02:52 23.11336 -109.71987 2162 ft 198 kts 163°
2026-04-29 02:52 23.10199 -109.71063 2550 ft 218 kts 122°
2026-04-29 02:52 23.09854 -109.69385 2940 ft 245 kts 84°
2026-04-29 02:52 23.10562 -109.67658 3616 ft 260 kts 56°
2026-04-29 02:53 23.11558 -109.65982 4333 ft 268 kts 64°
2026-04-29 02:53 23.12241 -109.64096 5157 ft 270 kts 75°
2026-04-29 02:53 23.12649 -109.62098 6037 ft 271 kts 81°
2026-04-29 02:53 23.12887 -109.60059 6913 ft 273 kts 85°
2026-04-29 02:54 23.13029 -109.57989 7598 ft 276 kts 87°
2026-04-29 02:54 23.13115 -109.55899 7942 ft 278 kts 88°
2026-04-29 02:54 23.13172 -109.53797 8012 ft 279 kts 89°
2026-04-29 02:54 23.13211 -109.51683 8018 ft 280 kts 89°
2026-04-29 02:55 23.13241 -109.49594 8008 ft 280 kts 90°
2026-04-29 02:55 23.13267 -109.47474 8012 ft 281 kts 90°
2026-04-29 02:55 23.13291 -109.45355 8013 ft 281 kts 90°
2026-04-29 02:55 23.13313 -109.43233 8012 ft 281 kts 90°
2026-04-29 02:56 23.13334 -109.41113 8012 ft 281 kts 90°
2026-04-29 02:56 23.13355 -109.38989 8012 ft 281 kts 90°
2026-04-29 02:56 23.13377 -109.36873 8011 ft 281 kts 90°
2026-04-29 02:56 23.13578 -109.34759 8040 ft 281 kts 80°
2026-04-29 02:57 23.13995 -109.32676 8419 ft 284 kts 78°
2026-04-29 02:57 23.14402 -109.30769 9142 ft 287 kts 78°
2026-04-29 02:57 23.14853 -109.28650 10089 ft 289 kts 78°
2026-04-29 02:57 23.15497 -109.26516 10626 ft 309 kts 65°
2026-04-29 02:58 23.16671 -109.24451 10962 ft 333 kts 56°
2026-04-29 02:58 23.18060 -109.22338 11314 ft 353 kts 55°
2026-04-29 02:58 23.19493 -109.20165 11918 ft 362 kts 55°
2026-04-29 02:58 23.20961 -109.17916 12641 ft 367 kts 56°
2026-04-29 02:59 23.22445 -109.15628 13329 ft 373 kts 56°
2026-04-29 02:59 23.23947 -109.13301 14019 ft 378 kts 56°
2026-04-29 02:59 23.25469 -109.10938 14660 ft 384 kts 56°
2026-04-29 02:59 23.27006 -109.08547 15326 ft 388 kts 56°
2026-04-29 03:00 23.28565 -109.06120 15956 ft 393 kts 56°
2026-04-29 03:00 23.30141 -109.03665 16568 ft 398 kts 56°
2026-04-29 03:00 23.31738 -109.01176 17191 ft 403 kts 56°
2026-04-29 03:00 23.33352 -108.98658 17807 ft 407 kts 56°
2026-04-29 03:01 23.34985 -108.96110 18414 ft 412 kts 55°
2026-04-29 03:01 23.36633 -108.93536 19007 ft 417 kts 55°
2026-04-29 03:01 23.38303 -108.90930 19623 ft 422 kts 55°
2026-04-29 03:01 23.40086 -108.88418 20165 ft 427 kts 48°
2026-04-29 03:02 23.42291 -108.86232 20723 ft 431 kts 35°
2026-04-29 03:02 23.44859 -108.84556 21358 ft 431 kts 25°
2026-04-29 03:02 23.47568 -108.83124 21931 ft 435 kts 22°
2026-04-29 03:02 23.50352 -108.81787 22467 ft 439 kts 21°
2026-04-29 03:03 23.53175 -108.80486 23044 ft 442 kts 20°
2026-04-29 03:03 23.56022 -108.79179 23585 ft 446 kts 20°
2026-04-29 03:03 23.58890 -108.77848 24159 ft 449 kts 20°
2026-04-29 03:03 23.61782 -108.76488 24711 ft 453 kts 20°
2026-04-29 03:04 23.64689 -108.75105 25251 ft 457 kts 21°
2026-04-29 03:04 23.67573 -108.73722 25786 ft 460 kts 21°
2026-04-29 03:04 23.70516 -108.72306 26294 ft 464 kts 21°
2026-04-29 03:04 23.73479 -108.70877 26804 ft 467 kts 21°
2026-04-29 03:05 23.76466 -108.69436 27301 ft 471 kts 21°
2026-04-29 03:05 23.79470 -108.67986 27801 ft 474 kts 21°
2026-04-29 03:05 23.82500 -108.66524 28276 ft 477 kts 21°
2026-04-29 03:05 23.85548 -108.65054 28740 ft 480 kts 21°
2026-04-29 03:06 23.88618 -108.63571 29175 ft 484 kts 21°
2026-04-29 03:06 23.91708 -108.62079 29601 ft 487 kts 21°
2026-04-29 03:06 23.94813 -108.60579 30035 ft 490 kts 21°
2026-04-29 03:06 23.97946 -108.59065 30445 ft 493 kts 20°
2026-04-29 03:07 24.01091 -108.57543 30844 ft 496 kts 20°
2026-04-29 03:07 24.04260 -108.56008 31227 ft 499 kts 20°
2026-04-29 03:07 24.07442 -108.54467 31618 ft 501 kts 20°
2026-04-29 03:07 24.10595 -108.52938 31992 ft 503 kts 19°
2026-04-29 03:08 24.13813 -108.51379 32336 ft 506 kts 19°
2026-04-29 03:08 24.17035 -108.49816 32710 ft 507 kts 19°
2026-04-29 03:08 24.20264 -108.48249 33066 ft 509 kts 19°
2026-04-29 03:08 24.23510 -108.46673 33395 ft 511 kts 19°
2026-04-29 03:09 24.26774 -108.45087 33734 ft 512 kts 18°
2026-04-29 03:09 24.30036 -108.43502 34058 ft 513 kts 18°
2026-04-29 03:09 24.33303 -108.41913 34403 ft 513 kts 18°
2026-04-29 03:09 24.36572 -108.40321 34754 ft 513 kts 18°
2026-04-29 03:10 24.39803 -108.38748 35059 ft 514 kts 18°
2026-04-29 03:10 24.43078 -108.37154 35363 ft 515 kts 18°
2026-04-29 03:10 24.46362 -108.35553 35672 ft 515 kts 18°
2026-04-29 03:10 24.49638 -108.33955 35994 ft 515 kts 18°
2026-04-29 03:11 24.52917 -108.32355 36285 ft 516 kts 18°
2026-04-29 03:11 24.56200 -108.30752 36544 ft 517 kts 18°
2026-04-29 03:11 24.59491 -108.29144 36798 ft 518 kts 18°
2026-04-29 03:11 24.62789 -108.27533 37065 ft 518 kts 18°
2026-04-29 03:12 24.66091 -108.25917 37200 ft 522 kts 17°
2026-04-29 03:12 24.72733 -108.22669 37572 ft 525 kts 17°
2026-04-29 03:12 24.76080 -108.21028 37824 ft 525 kts 17°
2026-04-29 03:13 24.79418 -108.19390 38060 ft 525 kts 17°
2026-04-29 03:13 24.82757 -108.17751 38288 ft 526 kts 17°
2026-04-29 03:13 24.86104 -108.16108 38476 ft 527 kts 17°
2026-04-29 03:13 24.89449 -108.14465 38696 ft 527 kts 17°
2026-04-29 03:14 24.92807 -108.12815 38896 ft 528 kts 17°
2026-04-29 03:14 24.96168 -108.11162 39076 ft 529 kts 17°
2026-04-29 03:14 24.99525 -108.09510 39280 ft 528 kts 17°
2026-04-29 03:14 25.02884 -108.07856 39519 ft 528 kts 17°
2026-04-29 03:15 25.06192 -108.06226 39745 ft 527 kts 18°
2026-04-29 03:15 25.09546 -108.04573 39961 ft 526 kts 18°
2026-04-29 03:15 25.12901 -108.02918 40138 ft 526 kts 18°
2026-04-29 03:15 25.16257 -108.01262 40295 ft 527 kts 18°
2026-04-29 03:16 25.19606 -107.99608 40470 ft 527 kts 18°
2026-04-29 03:16 25.22919 -107.97972 40620 ft 527 kts 18°
2026-04-29 03:16 25.26273 -107.96315 40817 ft 526 kts 19°
2026-04-29 03:17 25.33189 -107.93976 40935 ft 517 kts
2026-04-29 03:17 25.40303 -107.92586 40938 ft 520 kts
2026-04-29 03:18 25.47422 -107.91347 40938 ft 522 kts
2026-04-29 03:18 25.54607 -107.90090 40939 ft 523 kts
2026-04-29 03:19 25.61795 -107.88809 40939 ft 524 kts
2026-04-29 03:19 25.68991 -107.87514 40938 ft 524 kts
2026-04-29 03:20 25.76192 -107.86215 40938 ft 524 kts
2026-04-29 03:20 25.83388 -107.84915 40940 ft 524 kts
2026-04-29 03:21 25.90583 -107.83616 40939 ft 524 kts
2026-04-29 03:21 25.97791 -107.82313 40939 ft 524 kts
2026-04-29 03:22 26.04955 -107.81016 40961 ft 525 kts
2026-04-29 03:22 26.12187 -107.79706 40964 ft 525 kts
2026-04-29 03:23 26.19414 -107.78395 40964 ft 527 kts
2026-04-29 03:23 26.26666 -107.77077 40964 ft 527 kts
2026-04-29 03:24 26.33848 -107.75770 40968 ft 525 kts
2026-04-29 03:24 26.41066 -107.74457 40934 ft 526 kts
2026-04-29 03:25 26.48305 -107.73138 40965 ft 529 kts
2026-04-29 03:25 26.55591 -107.71812 40973 ft 531 kts
2026-04-29 03:26 26.62860 -107.70486 40972 ft 532 kts
2026-04-29 03:26 26.70141 -107.69153 40964 ft 529 kts
2026-04-29 03:27 26.76191 -107.68038 40972 ft 528 kts
2026-04-29 03:27 26.83436 -107.66700 40964 ft 529 kts
2026-04-29 03:28 26.90740 -107.65361 40966 ft 533 kts
2026-04-29 03:28 26.98083 -107.64014 40971 ft 535 kts
2026-04-29 03:29 27.05451 -107.62655 40964 ft 537 kts
2026-04-29 03:29 27.12829 -107.61293 40986 ft 536 kts
2026-04-29 03:30 27.20191 -107.59932 40964 ft 536 kts
2026-04-29 03:30 27.27528 -107.58578 40964 ft 539 kts
2026-04-29 03:31 27.38652 -107.56523 40972 ft 540 kts
2026-04-29 03:31 27.46076 -107.55139 40976 ft 541 kts
2026-04-29 03:32 27.53483 -107.53748 41114 ft 539 kts
2026-04-29 03:32 27.60892 -107.52373 41130 ft 541 kts
2026-04-29 03:33 27.68297 -107.50998 41128 ft 543 kts
2026-04-29 03:33 27.75758 -107.49607 41126 ft 543 kts
2026-04-29 03:34 27.83222 -107.48212 41128 ft 543 kts
2026-04-29 03:34 27.90636 -107.46824 41130 ft 544 kts
2026-04-29 03:35 27.98102 -107.45425 41130 ft 544 kts
2026-04-29 03:35 28.05578 -107.44021 41128 ft 545 kts
2026-04-29 03:36 28.13042 -107.42617 41131 ft 544 kts
2026-04-29 03:36 28.20518 -107.41210 41130 ft 544 kts
2026-04-29 03:37 28.27991 -107.39801 41132 ft 545 kts
2026-04-29 03:37 28.35495 -107.38387 41129 ft 546 kts
2026-04-29 03:38 28.42958 -107.36976 41130 ft 547 kts
2026-04-29 03:38 28.50461 -107.35555 41131 ft 546 kts
2026-04-29 03:39 28.57951 -107.34134 41130 ft 546 kts
2026-04-29 03:39 28.65462 -107.32710 41132 ft 547 kts
2026-04-29 03:40 28.72986 -107.31279 41126 ft 548 kts
2026-04-29 03:40 28.80504 -107.29847 41131 ft 546 kts
2026-04-29 03:41 28.87952 -107.28426 41131 ft 545 kts
2026-04-29 03:41 28.95438 -107.26997 41130 ft 546 kts
2026-04-29 03:42 29.02953 -107.25561 41126 ft 547 kts
2026-04-29 03:42 29.10479 -107.24116 41112 ft 547 kts
2026-04-29 03:43 29.17980 -107.22675 41132 ft 546 kts
2026-04-29 03:43 29.25476 -107.21239 41109 ft 546 kts
2026-04-29 03:44 29.32929 -107.19808 41130 ft 547 kts
2026-04-29 03:44 29.40063 -107.18435 41133 ft 547 kts